FW0014 Weather Reports


time (UTC)temp
C
wind
direction
speed
KPH
gust
KPH
rain 1hr
cm
rain 24hr
cm
rain mn
cm
humidity
%
barometer
mb
20260508093328 13 35 0.0 3.2 0.00 0.03 0.00 91 1016.8
20260508093056 13 35 0.0 3.2 0.00 0.03 0.00 91 1016.2
20260508092823 13 35 0.0 0.0 0.00 0.03 0.00 91 1016.9
20260508092548 13 35 0.0 1.6 0.00 0.03 0.00 91 1016.3
20260508092320 13 35 0.0 1.6 0.00 0.03 0.00 91 1016.9
20260508092042 13 35 0.0 1.6 0.00 0.03 0.00 91 1016.3
20260508091817 13 35 0.0 3.2 0.00 0.03 0.00 91 1016.8
20260508091536 13 35 0.0 3.2 0.00 0.03 0.00 91 1016.2
20260508091354 13 35 0.0 4.8 0.00 0.03 0.00 91 1016.6
20260508091101 13 35 0.0 6.4 0.00 0.03 0.00 91 1016.1
20260508090851 13 35 1.6 6.4 0.00 0.03 0.00 91 1016.6
20260508090530 13 35 1.6 6.4 0.00 0.03 0.00 91 1015.8
20260508090347 13 35 3.2 6.4 0.00 0.03 0.00 91 1016.5
20260508090107 13 35 0.0 4.8 0.00 0.03 0.00 91 1016.1
20260508085842 13 35 3.2 6.4 0.00 0.03 0.00 91 1016.7
20260508085526 13 294 0.0 6.4 0.00 0.03 0.00 91 1016.3
20260508085337 13 294 3.2 6.4 0.00 0.03 0.00 91 1017.0
20260508085050 13 324 3.2 6.4 0.00 0.03 0.00 91 1016.4
20260508084827 13 4 3.2 4.8 0.00 0.03 0.00 91 1016.9
20260508084546 13 4 0.0 0.0 0.00 0.03 0.00 91 1016.5
20260508084324 13 4 0.0 0.0 0.00 0.03 0.00 91 1017.0
20260508084039 13 4 0.0 0.0 0.00 0.03 0.00 91 1016.5
20260508083821 13 4 0.0 0.0 0.00 0.03 0.00 91 1017.0
20260508083529 13 4 0.0 0.0 0.00 0.03 0.00 91 1016.4
20260508083317 13 4 0.0 0.0 0.00 0.03 0.00 91 1016.9
20260508083020 13 4 0.0 0.0 0.00 0.03 0.00 91 1016.3
20260508082814 13 4 0.0 0.0 0.00 0.03 0.00 91 1016.9
20260508082546 13 4 0.0 0.0 0.00 0.03 0.00 91 1016.2
20260508082331 13 4 0.0 0.0 0.00 0.03 0.00 91 1016.7
20260508082040 12 4 0.0 0.0 0.00 0.03 0.00 91 1015.9
20260508081827 13 4 0.0 3.2 0.00 0.03 0.00 91 1016.5
20260508081536 12 4 0.0 4.8 0.00 0.03 0.00 91 1016.0
20260508081323 13 4 0.0 4.8 0.00 0.03 0.00 91 1016.5
20260508081029 12 4 1.6 4.8 0.00 0.03 0.00 91 1015.8
20260508080821 13 4 3.2 4.8 0.00 0.03 0.00 91 1016.4
20260508080521 12 4 0.0 3.2 0.00 0.03 0.00 91 1015.6
20260508080317 12 4 1.6 1.6 0.00 0.03 0.00 91 1016.3
20260508075831 12 4 0.0 0.0 0.00 0.03 0.00 91 1016.1
20260508075553 12 4 0.0 1.6 0.00 0.03 0.00 91 1015.4
20260508075328 12 4 0.0 1.6 0.00 0.03 0.00 91 1016.0
20260508075045 12 4 0.0 1.6 0.00 0.03 0.00 91 1015.3
20260508074824 12 4 0.0 1.6 0.00 0.03 0.00 91 1016.0
20260508074538 12 4 0.0 0.0 0.00 0.03 0.00 91 1015.2
20260508074320 12 4 0.0 0.0 0.00 0.03 0.00 91 1015.9
20260508074028 12 4 0.0 0.0 0.00 0.03 0.00 91 1015.3
20260508073816 12 4 0.0 0.0 0.00 0.03 0.00 90 1016.0
20260508073523 12 4 0.0 1.6 0.00 0.03 0.00 90 1015.4
20260508073332 12 4 0.0 1.6 0.00 0.03 0.00 90 1016.0
20260508073008 12 4 0.0 1.6 0.00 0.03 0.00 90 1015.4
20260508072828 12 4 0.0 1.6 0.00 0.03 0.00 90 1016.1
20260508072507 12 4 0.0 1.6 0.00 0.03 0.00 90 1015.5
20260508072324 12 4 0.0 1.6 0.00 0.03 0.00 90 1016.1
20260508072102 12 4 0.0 0.0 0.00 0.03 0.00 90 1015.5
20260508071819 12 4 0.0 0.0 0.00 0.03 0.00 90 1016.2
20260508071555 12 4 0.0 0.0 0.00 0.03 0.00 90 1015.6
20260508071315 12 4 0.0 0.0 0.00 0.03 0.00 90 1016.1
20260508071046 12 4 0.0 0.0 0.00 0.03 0.00 90 1015.5
20260508070831 12 4 0.0 0.0 0.00 0.03 0.00 90 1016.0
20260508070538 12 4 0.0 0.0 0.00 0.03 0.00 90 1015.3
20260508070326 12 4 0.0 0.0 0.00 0.03 0.00 90 1016.0
20260508070030 12 4 0.0 0.0 0.00 0.03 0.00 90 1015.4
20260508065822 13 4 0.0 0.0 0.00 0.03 0.00 90 1016.1
20260508065524 12 4 0.0 0.0 0.00 0.03 0.00 90 1015.5
20260508065319 13 4 0.0 0.0 0.00 0.03 0.00 90 1016.3
20260508065018 12 4 0.0 0.0 0.00 0.03 0.00 90 1015.7
20260508064815 13 4 0.0 0.0 0.00 0.03 0.00 90 1016.4
20260508064615 12 4 0.0 0.0 0.00 0.03 0.00 90 1015.9
20260508064333 13 4 0.0 0.0 0.00 0.03 0.00 90 1016.6
20260508064054 12 4 0.0 0.0 0.00 0.03 0.00 90 1016.0
20260508063827 13 4 0.0 0.0 0.00 0.03 0.00 90 1016.6
20260508063544 12 4 0.0 0.0 0.00 0.03 0.00 90 1015.9
20260508063324 13 4 0.0 0.0 0.00 0.03 0.00 90 1016.6
20260508063039 12 4 0.0 0.0 0.00 0.03 0.00 90 1016.0
20260508062840 13 4 0.0 0.0 0.00 0.03 0.00 89 1016.7
20260508062504 12 4 0.0 0.0 0.00 0.03 0.00 89 1016.2
20260508062336 13 4 0.0 0.0 0.00 0.03 0.00 90 1016.7
20260508062036 12 4 0.0 0.0 0.00 0.03 0.00 90 1016.2
20260508061829 13 4 0.0 0.0 0.00 0.03 0.00 89 1016.8
20260508061534 12 4 0.0 1.6 0.00 0.03 0.00 89 1016.1
20260508061326 13 4 0.0 3.2 0.00 0.03 0.00 89 1016.7
20260508061027 12 4 0.0 3.2 0.00 0.03 0.00 89 1016.1
20260508060824 13 4 0.0 3.2 0.00 0.03 0.00 89 1016.9
20260508060518 13 4 0.0 3.2 0.00 0.03 0.00 89 1016.3
20260508060319 13 4 0.0 0.0 0.00 0.03 0.00 89 1016.9
20260508060104 13 4 0.0 0.0 0.00 0.03 0.00 89 1016.3
20260508055832 13 4 0.0 0.0 0.00 0.03 0.00 89 1016.8
20260508055540 13 4 0.0 1.6 0.00 0.03 0.00 89 1016.3
20260508055329 13 4 0.0 1.6 0.00 0.03 0.00 89 1016.9
20260508055032 13 4 0.0 1.6 0.00 0.03 0.00 89 1016.3
20260508054823 13 4 0.0 1.6 0.00 0.03 0.00 89 1017.0
20260508054526 13 4 0.0 1.6 0.00 0.03 0.00 89 1016.5
20260508054319 13 4 0.0 1.6 0.00 0.03 0.00 89 1017.1
20260508054021 13 4 0.0 3.2 0.00 0.03 0.00 89 1016.5
20260508053815 13 4 0.0 3.2 0.00 0.03 0.00 89 1017.0
20260508053506 13 4 0.0 3.2 0.00 0.03 0.00 90 1016.4
20260508053331 13 4 1.6 3.2 0.00 0.03 0.00 90 1017.2
20260508053102 13 4 0.0 3.2 0.00 0.03 0.00 89 1016.4
20260508052828 13 4 0.0 4.8 0.00 0.03 0.00 89 1017.0
20260508052554 13 4 0.0 4.8 0.00 0.03 0.00 89 1016.2
20260508052325 13 4 1.6 4.8 0.00 0.03 0.00 89 1016.9
20260508052047 13 4 1.6 4.8 0.00 0.03 0.00 89 1016.3
20260508051820 13 4 0.0 0.0 0.00 0.03 0.00 89 1017.0
20260508051546 13 4 0.0 0.0 0.00 0.03 0.00 89 1016.5
20260508051316 13 4 0.0 0.0 0.00 0.03 0.00 89 1017.2
20260508051030 13 4 0.0 0.0 0.00 0.03 0.00 89 1016.5
20260508050834 13 4 0.0 0.0 0.00 0.03 0.00 89 1017.2
20260508050513 13 4 0.0 0.0 0.00 0.03 0.00 89 1016.5
20260508050322 13 4 0.0 0.0 0.00 0.03 0.00 89 1017.3
20260508050048 13 4 0.0 0.0 0.00 0.03 0.00 89 1016.7
20260508045831 13 4 0.0 0.0 0.00 0.03 0.03 89 1017.4
20260508045509 13 4 0.0 0.0 0.00 0.03 0.03 89 1016.5
20260508045350 13 4 0.0 0.0 0.00 0.03 0.03 89 1017.1
20260508045038 13 4 0.0 0.0 0.00 0.03 0.03 88 1016.4
20260508044824 13 4 0.0 0.0 0.00 0.03 0.03 88 1017.2
20260508044533 13 4 0.0 0.0 0.00 0.03 0.03 88 1016.7
20260508044340 13 4 0.0 0.0 0.00 0.03 0.03 88 1017.2
20260508044057 13 4 0.0 0.0 0.00 0.03 0.03 88 1016.5
20260508043815 13 4 0.0 0.0 0.00 0.03 0.03 88 1017.0
20260508043550 13 4 0.0 0.0 0.00 0.03 0.03 88 1016.5
20260508043331 13 4 0.0 0.0 0.00 0.03 0.03 88 1017.2
20260508043042 13 4 0.0 0.0 0.00 0.03 0.03 88 1016.7
20260508042828 13 4 0.0 0.0 0.00 0.03 0.03 88 1017.4
20260508042534 13 4 0.0 0.0 0.00 0.03 0.03 88 1016.7
20260508042325 13 4 0.0 0.0 0.00 0.03 0.03 88 1017.4
20260508042026 13 4 0.0 0.0 0.00 0.03 0.03 88 1016.8
20260508041822 13 4 0.0 0.0 0.00 0.03 0.03 88 1017.5
20260508041522 13 4 0.0 3.2 0.00 0.03 0.03 88 1016.8
20260508041320 13 4 0.0 3.2 0.00 0.03 0.03 88 1017.5
20260508041004 13 4 0.0 3.2 0.00 0.03 0.03 87 1017.0
20260508040836 13 4 1.6 3.2 0.00 0.03 0.03 88 1017.7
20260508040541 13 4 0.0 1.6 0.00 0.03 0.03 87 1016.9
20260508040332 13 4 0.0 1.6 0.00 0.03 0.03 87 1017.5
20260508040038 13 4 0.0 3.2 0.00 0.03 0.03 87 1017.0
20260508035827 13 4 0.0 3.2 0.00 0.03 0.03 87 1017.8
20260508035525 13 4 0.0 3.2 0.00 0.03 0.03 87 1017.1
20260508035322 14 4 1.6 3.2 0.00 0.03 0.03 87 1017.5
20260508035048 13 4 0.0 0.0 0.00 0.03 0.03 87 1016.7
20260508034819 14 4 0.0 0.0 0.00 0.03 0.03 87 1017.2
20260508034540 13 4 0.0 0.0 0.00 0.03 0.03 87 1016.6
20260508034315 14 4 0.0 0.0 0.00 0.03 0.03 87 1017.3
20260508034033 13 4 0.0 0.0 0.00 0.03 0.03 87 1016.6
20260508033831 14 4 0.0 0.0 0.00 0.03 0.03 86 1017.2
20260508033527 13 4 0.0 0.0 0.00 0.03 0.03 86 1016.5
20260508033329 14 4 0.0 0.0 0.00 0.03 0.03 86 1017.2
20260508033010 14 4 0.0 0.0 0.00 0.03 0.03 86 1016.6
20260508032825 14 4 0.0 0.0 0.00 0.03 0.03 86 1017.3
20260508032504 14 4 0.0 0.0 0.00 0.03 0.03 86 1016.6
20260508032322 14 4 0.0 0.0 0.00 0.03 0.03 86 1017.3
20260508032101 14 4 0.0 0.0 0.00 0.03 0.03 86 1016.6
20260508031818 14 4 0.0 0.0 0.00 0.03 0.03 86 1017.5
20260508031550 14 4 0.0 1.6 0.00 0.03 0.03 86 1016.7
20260508031315 15 4 0.0 3.2 0.00 0.03 0.03 86 1017.2
20260508031043 14 4 0.0 3.2 0.00 0.03 0.03 86 1016.7
20260508030829 15 4 0.0 3.2 0.00 0.03 0.03 86 1017.3
20260508030536 14 4 1.6 3.2 0.00 0.03 0.03 86 1016.8
20260508030326 15 4 1.6 3.2 0.00 0.03 0.03 86 1017.4
20260508030028 14 4 0.0 1.6 0.00 0.03 0.03 86 1016.8
20260508025823 15 4 0.0 1.6 0.00 0.03 0.03 86 1017.4
20260508025521 14 4 0.0 0.0 0.00 0.03 0.03 86 1016.7
20260508025319 15 4 0.0 1.6 0.00 0.03 0.03 86 1017.2
20260508025015 14 4 0.0 3.2 0.00 0.03 0.03 86 1016.6
20260508024817 15 4 0.0 4.8 0.00 0.03 0.03 86 1017.2
20260508024558 14 4 0.0 6.4 0.00 0.03 0.03 86 1016.5
20260508024333 15 4 1.6 6.4 0.00 0.03 0.03 86 1017.3
20260508024050 15 4 3.2 6.4 0.00 0.03 0.03 86 1016.5
20260508023829 15 4 3.2 6.4 0.00 0.03 0.03 85 1017.0
20260508023544 15 4 0.0 0.0 0.00 0.03 0.03 85 1016.3
20260508023345 15 4 0.0 1.6 0.00 0.03 0.03 85 1016.8
20260508023016 15 4 0.0 3.2 0.00 0.03 0.03 85 1015.9
20260508022841 15 4 0.0 3.2 0.00 0.03 0.03 85 1016.6
20260508022541 15 4 0.0 4.8 0.00 0.03 0.03 85 1015.7
20260508022315 15 4 0.0 4.8 0.00 0.03 0.03 85 1016.4
20260508022034 15 4 0.0 6.4 0.00 0.03 0.03 85 1015.5
20260508021828 15 4 3.2 8.0 0.00 0.03 0.03 85 1016.3
20260508021528 15 4 1.6 8.0 0.00 0.03 0.03 85 1015.8
20260508021324 15 4 3.2 8.0 0.00 0.03 0.03 85 1016.5
20260508021024 15 4 3.2 6.4 0.00 0.03 0.03 85 1015.7
20260508020821 15 8 3.2 6.4 0.00 0.03 0.03 84 1016.4
20260508020504 15 4 3.2 6.4 0.00 0.03 0.03 84 1015.7
20260508020317 15 354 3.2 6.4 0.00 0.03 0.03 84 1016.4
20260508020057 15 14 3.2 6.4 0.00 0.03 0.03 84 1015.7
20260508015832 15 32 4.8 6.4 0.00 0.03 0.03 84 1016.4
20260508015550 15 62 1.6 8.0 0.00 0.03 0.03 83 1015.6
20260508015327 15 62 3.2 8.0 0.00 0.03 0.03 83 1016.1
20260508015010 15 62 3.2 8.0 0.00 0.03 0.03 83 1015.3
20260508014840 16 62 4.8 8.0 0.00 0.03 0.03 83 1015.9
20260508014555 15 56 3.2 6.4 0.00 0.03 0.03 83 1015.3
20260508014328 16 52 3.2 6.4 0.00 0.03 0.03 82 1016.1
20260508014048 15 55 0.0 8.0 0.00 0.03 0.03 82 1015.7
20260508013845 16 54 1.6 8.0 0.00 0.03 0.03 81 1016.3
20260508013511 15 54 3.2 8.0 0.00 0.03 0.03 81 1015.4
20260508013321 16 63 3.2 8.0 0.00 0.03 0.03 80 1016.3
20260508013004 16 21 1.6 4.8 0.00 0.03 0.03 80 1015.7
20260508012817 16 28 1.6 4.8 0.00 0.03 0.03 80 1016.3
20260508012558 16 28 1.6 4.8 0.00 0.03 0.03 80 1015.4
20260508012314 16 67 3.2 4.8 0.00 0.03 0.03 79 1016.1
20260508012050 16 67 1.6 6.4 0.00 0.03 0.03 79 1015.4
20260508011830 16 66 1.6 6.4 0.00 0.03 0.03 79 1016.0
20260508011545 16 66 1.6 6.4 0.00 0.03 0.03 79 1015.4
20260508011327 16 66 3.2 6.4 0.00 0.03 0.03 78 1016.2
20260508011034 16 67 1.6 4.8 0.00 0.03 0.03 78 1015.6
20260508010823 16 66 1.6 4.8 0.00 0.03 0.03 78 1016.3
20260508010528 16 66 1.6 6.4 0.00 0.03 0.03 78 1015.5
20260508010338 16 66 1.6 9.7 0.00 0.03 0.03 77 1016.1
20260508010054 16 66 1.6 9.7 0.00 0.03 0.03 78 1015.2
20260508005852 16 97 3.2 9.7 0.00 0.03 0.03 77 1015.9
20260508005529 16 99 3.2 9.7 0.00 0.03 0.03 77 1015.1
20260508005327 17 66 3.2 9.7 0.00 0.03 0.03 77 1015.8
20260508005008 16 51 3.2 9.7 0.00 0.03 0.03 76 1015.3
20260508004822 17 57 4.8 12.9 0.00 0.03 0.03 76 1016.0
20260508004603 16 94 4.8 12.9 0.00 0.03 0.03 76 1015.4
20260508004320 17 70 3.2 12.9 0.00 0.03 0.03 76 1016.0
20260508004054 17 114 3.2 12.9 0.00 0.03 0.03 76 1015.4
20260508003816 17 77 4.8 9.7 0.00 0.03 0.03 76 1016.0
20260508003548 17 62 4.8 9.7 0.00 0.03 0.03 75 1015.4
20260508003332 17 39 4.8 11.3 0.00 0.03 0.03 76 1016.3
20260508003057 17 75 3.2 11.3 0.00 0.03 0.03 76 1015.5
20260508002828 17 68 4.8 9.7 0.00 0.03 0.03 76 1016.3
20260508002538 17 70 3.2 8.0 0.00 0.03 0.03 76 1015.7
20260508002343 17 88 3.2 6.4 0.00 0.03 0.03 76 1016.6
20260508002003 17 88 3.2 6.4 0.00 0.03 0.03 76 1015.9
20260508001837 17 88 4.8 6.4 0.00 0.03 0.03 76 1016.6
20260508001536 17 88 1.6 4.8 0.00 0.03 0.03 76 1016.1
20260508001333 17 88 1.6 4.8 0.00 0.03 0.03 75 1016.8
20260508001031 17 88 1.6 4.8 0.00 0.03 0.03 75 1016.2
20260508000829 17 88 3.2 4.8 0.00 0.03 0.03 75 1016.8
20260508000524 17 89 1.6 4.8 0.00 0.03 0.03 74 1016.3
20260508000324 17 88 3.2 4.8 0.00 0.03 0.03 74 1017.0
20260508000018 17 60 1.6 3.2 0.00 0.03 0.03 74 1016.5
20260507235820 17 60 0.0 4.8 0.00 0.03 0.03 75 1017.2
20260507235603 17 61 0.0 4.8 0.00 0.03 0.03 74 1016.6
20260507235317 17 60 3.2 4.8 0.00 0.03 0.03 74 1017.3
20260507235051 17 61 1.6 4.8 0.00 0.03 0.03 73 1016.6
20260507234849 17 56 1.6 4.8 0.00 0.03 0.03 74 1017.3
20260507234527 17 87 1.6 4.8 0.00 0.03 0.03 73 1016.7
20260507234325 17 77 3.2 4.8 0.00 0.03 0.03 73 1017.2
20260507234010 17 64 0.0 3.2 0.00 0.03 0.03 74 1016.7
20260507233822 17 64 0.0 3.2 0.00 0.03 0.03 74 1017.3
20260507233502 17 64 0.0 6.4 0.00 0.03 0.03 74 1016.8
20260507233317 17 64 1.6 6.4 0.00 0.03 0.03 73 1017.4
20260507233054 17 60 1.6 11.3 0.00 0.03 0.03 73 1016.7
20260507232832 17 60 1.6 11.3 0.00 0.03 0.03 73 1017.4
20260507232545 17 81 3.2 11.3 0.00 0.03 0.03 73 1016.5
20260507232349 17 102 4.8 11.3 0.00 0.03 0.03 72 1017.1
20260507232015 17 89 3.2 6.4 0.00 0.03 0.03 72 1016.7
20260507231823 17 46 4.8 6.4 0.00 0.03 0.03 72 1017.3
20260507231503 17 109 1.6 6.4 0.00 0.03 0.03 73 1016.8
20260507231318 17 137 1.6 11.3 0.00 0.03 0.03 72 1017.4
20260507231058 17 116 0.0 11.3 0.00 0.03 0.03 73 1016.6
20260507230854 17 27 3.2 11.3 0.00 0.03 0.03 73 1017.2
20260507230533 17 76 4.8 11.3 0.00 0.03 0.03 72 1016.4
20260507230329 17 78 6.4 9.7 0.00 0.03 0.03 72 1017.1
20260507230055 17 83 4.8 9.7 0.00 0.03 0.03 73 1016.6
20260507225823 17 50 4.8 8.0 0.00 0.03 0.03 73 1017.1
20260507225546 17 74 3.2 8.0 0.00 0.03 0.03 72 1016.7
20260507225321 17 89 3.2 8.0 0.00 0.03 0.03 72 1017.7
20260507225038 17 34 3.2 8.0 0.00 0.03 0.03 72 1017.0
20260507224817 17 43 3.2 9.7 0.00 0.03 0.03 73 1017.6
20260507224550 17 124 4.8 11.3 0.00 0.03 0.03 73 1016.9
20260507224353 17 64 4.8 11.3 0.00 0.03 0.03 73 1017.6
20260507224057 17 50 4.8 11.3 0.00 0.03 0.03 73 1017.1
20260507223829 17 52 4.8 6.4 0.00 0.03 0.03 73 1017.7
20260507223548 17 108 1.6 8.0 0.00 0.03 0.03 74 1016.9
20260507223343 17 107 3.2 11.3 0.00 0.03 0.03 73 1017.6
20260507223022 17 110 3.2 11.3 0.00 0.03 0.03 73 1016.9
20260507222840 17 152 4.8 11.3 0.00 0.03 0.03 73 1017.5
20260507222552 17 135 1.6 9.7 0.00 0.03 0.03 74 1016.7
20260507222315 17 139 1.6 8.0 0.00 0.03 0.03 74 1017.2
20260507222043 17 52 3.2 8.0 0.00 0.03 0.03 74 1016.8
20260507221830 17 54 3.2 9.7 0.00 0.03 0.03 74 1017.6
20260507221538 17 117 1.6 9.7 0.00 0.03 0.03 73 1017.2
20260507221325 17 117 1.6 9.7 0.00 0.03 0.03 73 1017.8
20260507221003 16 62 4.8 8.0 0.00 0.03 0.03 73 1017.1
20260507220821 17 82 3.2 11.3 0.00 0.03 0.03 73 1017.7
20260507220556 16 136 3.2 11.3 0.00 0.03 0.03 73 1017.2
20260507220316 17 66 1.6 11.3 0.00 0.03 0.03 74 1017.6
20260507220047 16 85 6.4 11.3 0.00 0.03 0.03 74 1016.7
20260507215830 17 41 6.4 12.9 0.00 0.03 0.03 75 1017.6
20260507215544 16 63 4.8 11.3 0.00 0.03 0.03 74 1017.2
20260507215326 17 107 4.8 11.3 0.00 0.03 0.03 74 1017.9
20260507215034 16 36 1.6 12.9 0.00 0.03 0.03 75 1017.5
20260507214821 17 77 1.6 12.9 0.00 0.03 0.03 74 1018.2
20260507214530 16 77 6.4 16.1 0.00 0.03 0.03 73 1017.6
20260507214317 17 106 8.0 16.1 0.00 0.03 0.03 74 1018.1
20260507214015 16 100 8.0 16.1 0.00 0.03 0.03 74 1017.4
20260507213852 17 77 6.4 16.1 0.00 0.03 0.03 76 1018.1
20260507213548 16 79 3.2 8.0 0.00 0.03 0.03 75 1017.5
20260507213328 17 62 3.2 12.9 0.00 0.03 0.03 75 1018.2
20260507213041 16 65 3.2 16.1 0.00 0.03 0.03 75 1017.8
20260507212825 17 65 3.2 16.1 0.00 0.03 0.03 76 1018.5
20260507212531 16 77 4.8 16.1 0.00 0.03 0.03 76 1017.9
20260507212342 17 83 6.4 16.1 0.00 0.03 0.03 76 1018.4
20260507212100 16 23 6.4 16.1 0.00 0.03 0.03 76 1017.8
20260507211815 17 54 6.4 16.1 0.00 0.03 0.03 76 1018.3
20260507211608 16 71 6.4 16.1 0.00 0.03 0.03 77 1017.7
20260507211332 16 27 3.2 11.3 0.00 0.03 0.03 77 1018.3
20260507211041 16 82 3.2 11.3 0.00 0.03 0.03 76 1017.8
20260507210829 16 87 4.8 8.0 0.00 0.03 0.03 76 1018.7
20260507210533 16 143 1.6 9.7 0.00 0.03 0.03 76 1018.4
20260507210326 16 143 4.8 9.7 0.00 0.03 0.03 78 1018.9
20260507210031 16 54 3.2 12.9 0.00 0.03 0.03 78 1018.4
20260507205821 16 27 4.8 14.5 0.00 0.03 0.03 78 1019.1
20260507205552 16 346 4.8 16.1 0.00 0.03 0.03 78 1018.6
20260507205317 16 359 6.4 16.1 0.00 0.03 0.03 77 1019.2
20260507205049 16 16 8.0 16.1 0.00 0.03 0.03 77 1018.6
20260507204835 16 10 6.4 14.5 0.00 0.03 0.03 79 1019.1
20260507204517 16 340 4.8 9.7 0.00 0.03 0.03 80 1018.6
20260507204330 16 359 3.2 9.7 0.00 0.03 0.03 81 1019.0
20260507204103 15 70 4.8 9.7 0.00 0.03 0.03 80 1018.3
20260507203826 15 91 4.8 11.3 0.00 0.03 0.03 81 1018.8
20260507203552 15 120 6.4 11.3 0.00 0.03 0.03 80 1018.2
20260507203317 15 93 4.8 9.7 0.00 0.03 0.03 79 1019.1
20260507203044 15 354 3.2 6.4 0.00 0.03 0.03 81 1019.2
20260507202855 15 53 0.0 6.4 0.00 0.03 0.03 80 1019.8
20260507202507 15 53 1.6 8.0 0.03 0.03 0.03 80 1019.0
20260507202330 15 314 3.2 8.0 0.03 0.03 0.03 80 1019.6
20260507202059 15 318 1.6 14.5 0.03 0.03 0.03 81 1018.8
20260507201826 15 359 3.2 14.5 0.03 0.03 0.03 81 1019.0
20260507201604 15 35 4.8 14.5 0.03 0.03 0.03 82 1018.2
20260507201322 15 14 9.7 14.5 0.03 0.03 0.03 82 1018.9
20260507201046 15 354 8.0 14.5 0.03 0.03 0.03 82 1018.4
20260507200817 15 11 4.8 19.3 0.03 0.03 0.03 83 1018.9
20260507200538 15 359 6.4 19.3 0.03 0.03 0.03 83 1018.1
20260507200333 15 4 8.0 19.3 0.03 0.03 0.03 84 1018.3
20260507200031 15 24 11.3 19.3 0.03 0.03 0.03 84 1017.2
20260507195830 15 4 11.3 14.5 0.03 0.03 0.03 84 1017.6
20260507195526 15 4 6.4 11.3 0.03 0.03 0.03 83 1017.3
20260507195325 15 4 4.8 9.7 0.03 0.03 0.03 83 1018.1
20260507195021 15 70 4.8 11.3 0.03 0.03 0.03 83 1017.5
20260507194822 15 81 3.2 9.7 0.03 0.03 0.03 83 1018.1
20260507194506 15 86 4.8 9.7 0.03 0.03 0.03 83 1017.5
20260507194318 15 110 4.8 9.7 0.03 0.03 0.03 83 1018.2
20260507194105 15 70 3.2 9.7 0.03 0.03 0.03 83 1018.0
20260507193815 15 61 4.8 9.7 0.03 0.03 0.03 83 1018.4
20260507193553 15 73 3.2 9.7 0.03 0.03 0.03 83 1018.0
20260507193331 15 47 4.8 9.7 0.03 0.03 0.03 82 1018.7
20260507193045 15 58 3.2 8.0 0.03 0.03 0.03 82 1018.5
20260507192826 15 26 4.8 8.0 0.03 0.03 0.03 80 1019.2
20260507192541 15 214 0.0 4.8 0.00 0.00 0.00 80 1019.2
20260507192321 15 214 1.6 6.4 0.00 0.00 0.00 79 1019.9
20260507192016 15 214 1.6 6.4 0.00 0.00 0.00 79 1019.8
20260507191817 15 214 1.6 8.0 0.00 0.00 0.00 79 1020.5
20260507191558 15 214 1.6 11.3 0.00 0.00 0.00 79 1019.9
20260507191351 15 214 3.2 11.3 0.00 0.00 0.00 78 1020.4
20260507191033 15 214 3.2 11.3 0.00 0.00 0.00 78 1020.0
20260507190847 15 192 8.0 11.3 0.00 0.00 0.00 78 1020.6
20260507190604 15 203 3.2 14.5 0.00 0.00 0.00 77 1019.8
20260507190344 15 305 3.2 16.1 0.00 0.00 0.00 77 1020.1
20260507190035 15 359 4.8 16.1 0.00 0.00 0.00 77 1019.1
20260507185819 15 12 8.0 17.7 0.00 0.03 0.00 76 1019.7
20260507185525 15 349 9.7 17.7 0.00 0.03 0.00 76 1019.2
20260507185316 15 48 8.0 17.7 0.00 0.03 0.00 77 1019.7
20260507185018 15 25 8.0 17.7 0.00 0.03 0.00 77 1018.9
20260507184831 15 35 9.7 14.5 0.00 0.03 0.00 77 1019.4
20260507184511 15 8 6.4 16.1 0.00 0.03 0.00 77 1019.2
20260507184326 15 10 6.4 16.1 0.00 0.03 0.00 76 1019.8
20260507184057 15 41 6.4 16.1 0.00 0.03 0.00 77 1019.2
20260507183823 15 27 6.4 16.1 0.00 0.03 0.00 77 1019.9
20260507183551 15 33 8.0 16.1 0.00 0.03 0.00 76 1019.3
20260507183320 15 16 8.0 12.9 0.00 0.03 0.00 76 1020.0
20260507183041 15 31 3.2 14.5 0.00 0.03 0.00 77 1019.5
20260507182816 15 79 3.2 14.5 0.00 0.03 0.00 77 1020.0
20260507182533 15 58 6.4 14.5 0.00 0.03 0.00 77 1019.3
20260507182331 15 32 6.4 16.1 0.00 0.03 0.00 77 1019.9
20260507182015 15 60 6.4 16.1 0.00 0.03 0.00 77 1019.3
20260507181828 15 33 8.0 16.1 0.00 0.03 0.00 77 1019.8
20260507181507 15 77 8.0 14.5 0.00 0.03 0.00 77 1019.4
20260507181324 15 82 8.0 12.9 0.00 0.03 0.00 77 1020.4
20260507181102 15 81 3.2 11.3 0.00 0.03 0.00 76 1020.1
20260507180821 15 83 0.0 11.3 0.00 0.03 0.00 77 1020.7
20260507180559 15 48 4.8 17.7 0.00 0.03 0.00 77 1019.9
20260507180316 15 106 4.8 17.7 0.00 0.03 0.00 77 1020.5
20260507180048 15 48 4.8 17.7 0.00 0.03 0.00 76 1019.8
20260507175832 15 62 9.7 17.7 0.00 0.03 0.00 76 1020.3
20260507175535 15 53 9.7 20.9 0.00 0.03 0.00 76 1019.7
20260507175328 15 69 8.0 22.5 0.00 0.03 0.00 77 1020.2
20260507175029 15 22 9.7 22.5 0.00 0.03 0.00 77 1019.6
20260507174823 15 54 9.7 22.5 0.00 0.03 0.00 77 1020.1
20260507174523 15 49 11.3 22.5 0.00 0.03 0.00 77 1019.3
20260507174340 15 23 11.3 22.5 0.00 0.03 0.00 77 1020.0
20260507174047 15 73 8.0 22.5 0.00 0.03 0.00 78 1019.5
20260507173814 15 31 11.3 22.5 0.00 0.03 0.00 77 1020.0
20260507173541 14 100 6.4 19.3 0.00 0.03 0.00 78 1019.2
20260507173331 15 48 12.9 19.3 0.00 0.03 0.00 78 1019.6
20260507173035 14 22 11.3 20.9 0.00 0.03 0.00 78 1019.0
20260507172826 15 60 9.7 20.9 0.00 0.03 0.00 78 1019.6
20260507172525 14 35 8.0 20.9 0.00 0.03 0.00 79 1019.3
20260507172322 15 77 11.3 22.5 0.00 0.03 0.00 78 1019.8
20260507172016 14 70 6.4 22.5 0.00 0.03 0.00 79 1019.3
20260507171818 15 59 9.7 22.5 0.00 0.03 0.00 79 1019.9
20260507171607 14 65 11.3 19.3 0.00 0.03 0.00 79 1019.4
20260507171314 14 27 12.9 24.1 0.00 0.03 0.00 79 1020.0
20260507171053 14 40 6.4 24.1 0.00 0.03 0.00 80 1019.5
20260507170832 14 34 9.7 24.1 0.00 0.03 0.00 80 1020.1
20260507170547 14 28 12.9 24.1 0.00 0.03 0.00 80 1019.4
20260507170329 14 81 9.7 16.1 0.00 0.03 0.00 80 1019.8
20260507170040 13 52 6.4 16.1 0.00 0.03 0.00 81 1019.3
20260507165824 14 84 8.0 16.1 0.00 0.03 0.00 81 1019.9
20260507165534 13 85 8.0 17.7 0.00 0.03 0.00 80 1019.4
20260507165320 14 59 8.0 17.7 0.00 0.03 0.00 80 1020.3
20260507165025 13 90 8.0 17.7 0.00 0.03 0.00 81 1019.8
20260507164817 14 39 8.0 14.5 0.00 0.03 0.00 81 1020.3
20260507164512 13 46 6.4 14.5 0.00 0.03 0.00 81 1020.0
20260507164354 14 25 4.8 14.5 0.00 0.03 0.00 81 1020.7
20260507164043 13 68 6.4 14.5 0.00 0.03 0.00 80 1020.2
20260507163849 14 74 8.0 14.5 0.00 0.03 0.00 80 1020.6
20260507163507 13 65 6.4 12.9 0.00 0.03 0.00 81 1020.2
20260507163320 14 108 4.8 12.9 0.00 0.03 0.00 81 1020.7
20260507163041 13 93 4.8 12.9 0.00 0.03 0.00 80 1020.1
20260507162816 14 79 6.4 11.3 0.00 0.03 0.00 81 1020.8
20260507162534 13 69 3.2 11.3 0.00 0.03 0.00 81 1020.6
20260507162332 14 58 3.2 9.7 0.00 0.03 0.00 81 1021.3
20260507162023 13 38 3.2 14.5 0.00 0.03 0.00 81 1020.7
20260507161829 13 97 3.2 16.1 0.00 0.03 0.00 81 1021.0
20260507161511 13 44 4.8 16.1 0.00 0.03 0.00 81 1020.4
20260507161325 13 30 6.4 16.1 0.00 0.03 0.00 81 1020.6
20260507161005 13 79 8.0 14.5 0.00 0.03 0.00 81 1019.6
20260507160821 13 65 8.0 14.5 0.00 0.03 0.00 81 1020.4
20260507160602 13 84 3.2 9.7 0.00 0.03 0.00 82 1020.2
20260507160318 13 52 3.2 9.7 0.00 0.03 0.00 81 1020.9
20260507160107 13 48 4.8 9.7 0.00 0.03 0.00 81 1020.7
20260507155814 13 59 1.6 16.1 0.00 0.13 0.00 82 1021.2
20260507155549 13 63 6.4 16.1 0.00 0.13 0.00 82 1020.3
20260507155329 13 60 4.8 16.1 0.00 0.13 0.00 82 1020.5
20260507155013 13 57 8.0 17.7 0.00 0.13 0.00 81 1019.8
20260507154823 13 44 8.0 17.7 0.00 0.13 0.00 81 1020.5
20260507154503 13 29 8.0 17.7 0.00 0.13 0.00 81 1020.1
20260507154320 13 65 11.3 17.7 0.00 0.13 0.00 81 1020.6
20260507154056 13 32 9.7 19.3 0.00 0.13 0.00 81 1020.2
20260507153815 13 77 8.0 19.3 0.00 0.13 0.00 81 1020.8
20260507153549 13 27 6.4 19.3 0.00 0.13 0.00 82 1020.4
20260507153331 13 46 11.3 17.7 0.00 0.13 0.00 82 1020.9
20260507153027 13 35 6.4 17.7 0.00 0.13 0.00 83 1020.3
20260507152818 13 25 6.4 17.7 0.00 0.13 0.00 83 1021.0
20260507152503 13 34 8.0 17.7 0.00 0.13 0.00 83 1020.3
20260507152313 13 39 11.3 17.7 0.00 0.13 0.00 83 1020.9
20260507152057 13 9 8.0 16.1 0.00 0.13 0.00 83 1020.4
20260507151852 13 43 8.0 16.1 0.00 0.13 0.00 83 1021.0
20260507151531 13 12 6.4 16.1 0.00 0.13 0.00 83 1020.7
20260507151328 13 64 8.0 14.5 0.00 0.13 0.00 83 1021.3
20260507151027 13 27 6.4 17.7 0.00 0.13 0.00 83 1020.6
20260507150836 13 58 6.4 19.3 0.00 0.13 0.00 83 1020.9
20260507150544 13 67 9.7 19.3 0.00 0.13 0.00 83 1020.5
20260507150350 13 21 9.7 19.3 0.00 0.13 0.00 83 1021.1
20260507150012 13 55 6.4 17.7 0.00 0.23 0.00 83 1020.5
20260507145826 13 4 9.7 17.7 0.00 0.23 0.00 84 1021.0
20260507145600 13 23 9.7 19.3 0.00 0.23 0.00 83 1020.6
20260507145321 13 68 9.7 19.3 0.00 0.23 0.00 83 1021.2
20260507145053 13 67 8.0 19.3 0.00 0.23 0.00 84 1020.5
20260507144818 13 58 9.7 19.3 0.00 0.23 0.00 84 1021.0
20260507144547 13 56 11.3 17.7 0.00 0.23 0.00 84 1020.4
20260507144333 13 73 12.9 17.7 0.00 0.23 0.00 84 1021.1
20260507144040 13 65 8.0 16.1 0.00 0.23 0.00 84 1020.6
20260507143829 13 70 8.0 16.1 0.00 0.23 0.00 84 1021.1
20260507143528 13 43 6.4 19.3 0.00 0.23 0.00 85 1020.8
20260507143345 13 45 6.4 19.3 0.00 0.23 0.00 85 1021.0
20260507143053 13 58 11.3 19.3 0.00 0.23 0.00 85 1020.1
20260507142820 13 65 8.0 17.7 0.00 0.23 0.00 85 1020.6
20260507142546 13 17 9.7 22.5 0.00 0.23 0.00 85 1020.0
20260507142352 13 75 11.3 22.5 0.00 0.23 0.00 85 1020.5
20260507142009 13 12 8.0 22.5 0.00 0.23 0.00 85 1020.0
20260507141826 13 75 9.7 22.5 0.00 0.23 0.00 85 1020.6
20260507141501 13 15 12.9 22.5 0.00 0.23 0.00 86 1019.8
20260507141323 13 16 11.3 17.7 0.00 0.23 0.00 86 1020.3
20260507141053 13 348 6.4 17.7 0.00 0.23 0.00 86 1019.7
20260507140841 13 31 9.7 25.7 0.00 0.23 0.00 86 1020.2
20260507140527 13 73 9.7 29.0 0.00 0.23 0.00 86 1019.7
20260507140316 13 13 9.7 29.0 0.00 0.23 0.00 86 1020.3
20260507140022 13 18 14.5 29.0 0.00 0.23 0.00 86 1019.7
20260507135852 13 359 12.9 22.5 0.00 0.23 0.00 87 1020.2
20260507135543 13 10 11.3 27.4 0.00 0.23 0.00 87 1019.7
20260507135327 13 18 12.9 27.4 0.00 0.23 0.00 87 1020.3
20260507135036 12 4 12.9 27.4 0.00 0.23 0.00 87 1019.7
20260507134822 13 30 14.5 27.4 0.00 0.23 0.00 87 1020.3
20260507134530 12 46 9.7 24.1 0.00 0.23 0.00 87 1019.8
20260507134318 13 93 9.7 24.1 0.00 0.23 0.00 87 1020.3
20260507134023 12 34 11.3 27.4 0.00 0.23 0.00 87 1019.8
20260507133814 13 359 11.3 27.4 0.00 0.23 0.00 87 1020.3
20260507133518 12 35 12.9 27.4 0.00 0.23 0.00 87 1019.7
20260507133333 12 57 16.1 27.4 0.00 0.23 0.00 87 1020.1
20260507133003 12 10 11.3 24.1 0.00 0.23 0.00 88 1019.6
20260507132829 12 19 12.9 24.1 0.00 0.23 0.00 88 1020.2
20260507132554 12 41 12.9 24.1 0.00 0.23 0.00 88 1019.8
20260507132325 13 68 12.9 24.1 0.00 0.23 0.00 88 1020.5
20260507132050 12 18 6.4 20.9 0.00 0.23 0.00 88 1020.0
20260507131842 12 359 9.7 20.9 0.00 0.23 0.00 88 1020.4
20260507131530 12 28 9.7 24.1 0.00 0.23 0.00 88 1019.8
20260507131317 12 27 12.9 24.1 0.00 0.23 0.00 88 1020.4
20260507131016 12 4 11.3 24.1 0.00 0.23 0.00 88 1019.8
20260507130814 12 37 14.5 25.7 0.00 0.23 0.00 88 1020.5
20260507130559 12 37 9.7 25.7 0.00 0.23 0.00 88 1020.0
20260507130330 12 339 9.7 25.7 0.00 0.23 0.00 88 1020.5
20260507130053 12 75 11.3 25.7 0.00 0.23 0.00 88 1020.1
20260507125846 12 9 11.3 17.7 0.00 0.23 0.00 88 1020.7
20260507125525 12 25 8.0 17.7 0.00 0.23 0.00 88 1020.2
20260507125342 12 354 4.8 19.3 0.00 0.23 0.00 88 1021.0
20260507125051 12 15 8.0 19.3 0.00 0.23 0.00 88 1020.2
20260507124817 12 38 8.0 19.3 0.00 0.23 0.00 88 1020.7
20260507124538 12 53 6.4 19.3 0.00 0.23 0.00 88 1020.1
20260507124314 12 62 9.7 19.3 0.00 0.23 0.00 88 1020.6
20260507124029 12 48 9.7 19.3 0.00 0.23 0.00 88 1020.0
20260507123831 12 16 6.4 19.3 0.00 0.23 0.00 88 1020.8
20260507123516 12 84 8.0 19.3 0.00 0.23 0.00 88 1020.1
20260507123325 12 56 9.7 19.3 0.00 0.23 0.00 88 1020.6
20260507123006 12 42 6.4 14.5 0.00 0.23 0.00 88 1019.9
20260507122842 12 50 8.0 16.1 0.00 0.23 0.00 88 1020.4
20260507122538 12 44 4.8 16.1 0.00 0.23 0.00 88 1019.8
20260507122316 12 4 4.8 16.1 0.00 0.23 0.00 88 1020.3
20260507122030 12 359 8.0 16.1 0.00 0.23 0.00 88 1019.6
20260507121831 12 36 9.7 16.1 0.00 0.23 0.00 88 1020.3
20260507121526 12 28 6.4 17.7 0.00 0.23 0.00 88 1019.8
20260507121328 12 27 6.4 20.9 0.00 0.23 0.00 88 1020.4
20260507121007 12 25 4.8 20.9 0.00 0.23 0.00 88 1019.8
20260507120824 12 26 11.3 22.5 0.00 0.23 0.00 88 1020.4
20260507120603 12 34 9.7 22.5 0.00 0.23 0.00 88 1019.7
20260507120319 12 359 9.7 22.5 0.00 0.23 0.00 88 1020.2
20260507120055 12 25 8.0 19.3 0.00 0.25 0.00 88 1019.5
20260507115814 12 14 9.7 19.3 0.00 0.25 0.00 88 1020.2
20260507115547 12 39 11.3 19.3 0.00 0.25 0.00 88 1019.7
20260507115326 12 4 12.9 19.3 0.00 0.25 0.00 88 1020.3
20260507115036 12 359 11.3 17.7 0.00 0.25 0.00 88 1019.7
20260507114821 12 341 11.3 17.7 0.00 0.25 0.00 88 1020.3
20260507114526 12 34 8.0 17.7 0.00 0.25 0.00 88 1019.6
20260507114317 12 8 9.7 17.7 0.00 0.25 0.00 88 1020.1
20260507114010 12 83 11.3 17.7 0.00 0.25 0.00 88 1019.6
20260507113853 12 23 8.0 17.7 0.00 0.25 0.00 88 1020.3
20260507113542 12 25 8.0 14.5 0.00 0.25 0.00 88 1019.9
20260507113327 12 31 8.0 14.5 0.00 0.25 0.00 88 1020.4
20260507113005 12 359 6.4 14.5 0.00 0.25 0.00 88 1019.6
20260507112823 12 359 6.4 14.5 0.00 0.25 0.00 88 1020.3
20260507112558 12 48 6.4 22.5 0.00 0.25 0.00 88 1019.6
20260507112319 12 27 8.0 22.5 0.00 0.25 0.00 88 1020.3
20260507112048 12 24 8.0 22.5 0.00 0.25 0.00 88 1019.5
20260507111814 12 8 9.7 22.5 0.00 0.25 0.00 88 1020.1
20260507111544 12 8 9.7 19.3 0.00 0.25 0.00 88 1019.3
20260507111329 12 52 9.7 19.3 0.00 0.25 0.00 88 1019.9
20260507111004 12 62 8.0 20.9 0.00 0.25 0.00 88 1019.2
20260507110824 12 32 11.3 20.9 0.00 0.25 0.00 88 1019.8
20260507110600 12 8 11.3 20.9 0.00 0.25 0.00 88 1019.2
20260507110321 12 15 12.9 22.5 0.00 0.25 0.00 88 1019.7
20260507110057 12 16 11.3 24.1 0.00 0.25 0.00 87 1019.1
20260507105837 12 49 11.3 25.7 0.00 0.25 0.00 87 1019.8
20260507105524 12 359 12.9 25.7 0.00 0.25 0.00 87 1018.9
20260507105332 12 31 14.5 25.7 0.00 0.25 0.00 87 1019.5
20260507105016 12 43 9.7 22.5 0.00 0.25 0.00 87 1018.9
20260507104827 12 27 9.7 22.5 0.00 0.25 0.00 87 1019.7
20260507104507 12 27 9.7 24.1 0.00 0.25 0.00 87 1019.2
20260507104323 12 8 9.7 24.1 0.00 0.25 0.00 87 1019.8
20260507104059 12 30 14.5 24.1 0.00 0.25 0.00 87 1019.0
20260507103819 12 28 12.9 24.1 0.00 0.25 0.00 87 1019.6
20260507103554 12 18 8.0 19.3 0.00 0.25 0.00 87 1018.8
20260507103317 12 9 9.7 19.3 0.00 0.25 0.00 87 1019.5
20260507103043 12 35 9.7 25.7 0.00 0.25 0.00 87 1018.8
20260507102825 13 27 11.3 25.7 0.00 0.25 0.00 87 1019.5
20260507102534 12 27 14.5 25.7 0.00 0.25 0.00 87 1019.0
20260507102321 13 37 14.5 25.7 0.00 0.25 0.00 87 1019.6
20260507102027 12 31 11.3 24.1 0.00 0.25 0.00 87 1019.1
20260507101818 13 350 14.5 24.1 0.00 0.25 0.00 87 1019.8
20260507101511 12 34 4.8 17.7 0.00 0.25 0.00 88 1019.1
20260507101314 13 359 4.8 19.3 0.00 0.25 0.00 88 1019.9
20260507101005 12 16 3.2 20.9 0.00 0.25 0.00 88 1018.9
20260507100830 13 60 8.0 20.9 0.00 0.25 0.00 88 1019.4
20260507100602 12 359 11.3 20.9 0.00 0.25 0.00 88 1018.6
20260507100324 13 4 12.9 20.9 0.00 0.25 0.00 88 1019.2
20260507100034 12 359 11.3 19.3 0.00 0.25 0.00 88 1018.5
20260507095839 13 26 9.7 19.3 0.00 0.25 0.00 88 1019.2
20260507095558 12 16 6.4 16.1 0.00 0.25 0.00 88 1018.8
20260507095314 13 28 9.7 16.1 0.00 0.25 0.00 88 1019.7
20260507095048 12 359 6.4 19.3 0.00 0.25 0.00 88 1018.7
20260507094832 13 12 9.7 19.3 0.00 0.25 0.00 88 1019.3
20260507094546 12 14 8.0 20.9 0.00 0.25 0.00 88 1018.2
20260507094329 13 346 11.3 24.1 0.00 0.25 0.00 88 1019.0
20260507094031 12 19 9.7 24.1 0.00 0.25 0.00 88 1018.1
20260507093823 13 50 14.5 24.1 0.00 0.25 0.00 88 1018.9
20260507093525 13 44 8.0 19.3 0.00 0.25 0.00 89 1018.3